User: anonymous   Login
Location: ASU Dark Sky Observatory
(36.2504°N, 81.4125°W)
Time: 05:32:48
(UTC-04:00)
Language:

ETS-7 - Orbit

View from above orbital plane
View from above orbital plane
View from above satellite
View from above satellite

Ground track
Ground track

The orbit data is extracted from the following two-line orbital elements,

1 25064U 97074B   14296.83384087  .00036271  00000-0  55216-3 0  2878
2 25064 034.9597 144.1398 0002830 242.6040 232.2173 15.53461244941152
Epoch (UTC): 23 October 2014 20:00:43
Eccentricity: 0.0002830
inclination: 34.9597°
perigee height: 405 km
apogee height: 408 km
right ascension of ascending node: 144.1398°
argument of perigee: 242.6040°
revolutions per day: 15.53461244
mean anomaly at epoch: 232.2173°
orbit number at epoch: 94115

The dashed part of the orbit path shows where the satellite is in the earth's shadow,  

DLR